GLV1023 SBFN-SBRF

Flight info

Callsign GLV1023
Flight time 0h 58m
Altitude 32000
Route TOMEK DCT UBRUT
Aircraft B738/M-SDE2E3FGHIRWXY/LB1

Departure

Time 2026-04-25 19:53
Airport Fernando de Noronha Airport (SBFN)

Arrival

Time 2026-04-25 20:51
Airport Recife/Guararapes - Gilberto Freyre International Airport (SBRF)
Time Latitude Longitude Altitude Speed Heading
2026-04-25 19:38 -3.85590 -32.42909 191 ft 0 kts 131°
2026-04-25 19:45 -3.85589 -32.42912 191 ft 0 kts 101°
2026-04-25 19:46 -3.85589 -32.42911 191 ft 0 kts 101°
2026-04-25 19:46 -3.85589 -32.42905 191 ft 3 kts 91°
2026-04-25 19:46 -3.85581 -32.42863 191 ft 9 kts 77°
2026-04-25 19:47 -3.85556 -32.42788 191 ft 13 kts 48°
2026-04-25 19:47 -3.85461 -32.42743 191 ft 17 kts 17°
2026-04-25 19:47 -3.85418 -32.42664 191 ft 13 kts 96°
2026-04-25 19:47 -3.85426 -32.42577 191 ft 12 kts 95°
2026-04-25 19:48 -3.85433 -32.42493 191 ft 12 kts 95°
2026-04-25 19:48 -3.85438 -32.42433 191 ft 12 kts 94°
2026-04-25 19:48 -3.85439 -32.42408 191 ft 12 kts 94°
2026-04-25 19:49 -3.85469 -32.42020 191 ft 10 kts 93°
2026-04-25 19:49 -3.85474 -32.41949 191 ft 10 kts 94°
2026-04-25 19:50 -3.85483 -32.41809 191 ft 11 kts 94°
2026-04-25 19:50 -3.85491 -32.41725 191 ft 13 kts 95°
2026-04-25 19:50 -3.85498 -32.41640 191 ft 12 kts 93°
2026-04-25 19:51 -3.85498 -32.41561 191 ft 10 kts 72°
2026-04-25 19:51 -3.85478 -32.41512 191 ft 4 kts 108°
2026-04-25 19:51 -3.85495 -32.41508 191 ft 2 kts 214°
2026-04-25 19:51 -3.85501 -32.41519 191 ft 2 kts 246°
2026-04-25 19:52 -3.85503 -32.41552 191 ft 18 kts 270°
2026-04-25 19:52 -3.85470 -32.41963 191 ft 99 kts 276°
2026-04-25 19:52 -3.85399 -32.42890 192 ft 166 kts 276°
2026-04-25 19:52 -3.85317 -32.44122 451 ft 186 kts 276°
2026-04-25 19:53 -3.85228 -32.45478 784 ft 205 kts 276°
2026-04-25 19:53 -3.85109 -32.46952 1297 ft 221 kts 277°
2026-04-25 19:53 -3.85018 -32.47997 1665 ft 233 kts 277°
2026-04-25 19:55 -3.91775 -32.54581 4770 ft 271 kts 178°
2026-04-25 19:55 -3.93657 -32.54549 5269 ft 272 kts 176°
2026-04-25 19:55 -3.95546 -32.54533 5767 ft 273 kts 179°
2026-04-25 19:55 -3.97421 -32.54644 6259 ft 275 kts 184°
2026-04-25 19:56 -3.99338 -32.54929 6769 ft 277 kts 189°
2026-04-25 19:56 -4.01211 -32.55372 7367 ft 279 kts 193°
2026-04-25 19:56 -4.03070 -32.55949 7993 ft 282 kts 197°
2026-04-25 19:56 -4.04913 -32.56632 8617 ft 284 kts 200°
2026-04-25 19:57 -4.06743 -32.57395 9241 ft 287 kts 202°
2026-04-25 19:57 -4.08562 -32.58229 9865 ft 290 kts 204°
2026-04-25 19:57 -4.10387 -32.59115 10465 ft 297 kts 205°
2026-04-25 19:57 -4.12274 -32.60058 10987 ft 310 kts 205°
2026-04-25 19:58 -4.14235 -32.61057 11480 ft 324 kts 206°
2026-04-25 19:58 -4.16276 -32.62110 11959 ft 336 kts 206°
2026-04-25 19:58 -4.18373 -32.63203 12551 ft 344 kts 206°
2026-04-25 19:58 -4.20504 -32.64321 13239 ft 348 kts 206°
2026-04-25 19:59 -4.22648 -32.65452 13967 ft 351 kts 206°
2026-04-25 19:59 -4.24818 -32.66599 14663 ft 356 kts 206°
2026-04-25 19:59 -4.27015 -32.67762 15401 ft 359 kts 206°
2026-04-25 19:59 -4.29225 -32.68935 16145 ft 362 kts 206°
2026-04-25 20:00 -4.31457 -32.70120 16860 ft 366 kts 206°
2026-04-25 20:00 -4.32956 -32.70917 17332 ft 368 kts 206°
2026-04-25 20:00 -4.35981 -32.72526 18257 ft 373 kts 206°
2026-04-25 20:00 -4.38270 -32.73745 19009 ft 373 kts 207°
2026-04-25 20:01 -4.42840 -32.76183 20340 ft 380 kts 206°
2026-04-25 20:01 -4.45205 -32.77442 20724 ft 390 kts 206°
2026-04-25 20:01 -4.47619 -32.78726 21197 ft 397 kts 206°
2026-04-25 20:02 -4.50062 -32.80025 21725 ft 401 kts 206°
2026-04-25 20:02 -4.52532 -32.81339 22285 ft 404 kts 206°
2026-04-25 20:02 -4.55018 -32.82662 22806 ft 408 kts 206°
2026-04-25 20:02 -4.57529 -32.83998 23303 ft 411 kts 207°
2026-04-25 20:03 -4.60058 -32.85352 23787 ft 415 kts 207°
2026-04-25 20:03 -4.62562 -32.86781 24263 ft 418 kts 210°
2026-04-25 20:03 -4.65070 -32.88257 24753 ft 420 kts 210°
2026-04-25 20:03 -4.67593 -32.89743 25142 ft 424 kts 210°
2026-04-25 20:04 -4.70144 -32.91244 25548 ft 427 kts 210°
2026-04-25 20:04 -4.72707 -32.92749 26033 ft 428 kts 210°
2026-04-25 20:04 -4.75277 -32.94255 26435 ft 431 kts 210°
2026-04-25 20:04 -4.77858 -32.95764 26815 ft 434 kts 210°
2026-04-25 20:05 -4.80479 -32.97294 27210 ft 436 kts 210°
2026-04-25 20:05 -4.83103 -32.98823 27580 ft 439 kts 210°
2026-04-25 20:05 -4.85741 -33.00360 27973 ft 440 kts 210°
2026-04-25 20:05 -4.88381 -33.01897 28490 ft 438 kts 210°
2026-04-25 20:06 -4.90994 -33.03416 29031 ft 435 kts 209°
2026-04-25 20:06 -4.92356 -33.04208 29236 ft 436 kts 209°
2026-04-25 20:06 -4.94989 -33.05740 29482 ft 441 kts 209°
2026-04-25 20:06 -4.97642 -33.07283 29783 ft 444 kts 209°
2026-04-25 20:07 -5.00308 -33.08833 30133 ft 445 kts 209°
2026-04-25 20:07 -5.02979 -33.10386 30508 ft 445 kts 210°
2026-04-25 20:07 -5.05649 -33.11940 30886 ft 445 kts 210°
2026-04-25 20:07 -5.08322 -33.13496 31261 ft 445 kts 210°
2026-04-25 20:08 -5.10990 -33.15049 31634 ft 444 kts 210°
2026-04-25 20:08 -5.13649 -33.16598 31919 ft 442 kts 211°
2026-04-25 20:08 -5.18874 -33.19643 31884 ft 432 kts 210°
2026-04-25 20:09 -5.24051 -33.22663 31876 ft 432 kts 210°
2026-04-25 20:09 -5.29228 -33.25685 31876 ft 432 kts 210°
2026-04-25 20:10 -5.34408 -33.28710 31876 ft 432 kts 210°
2026-04-25 20:10 -5.39563 -33.31729 31927 ft 425 kts 211°
2026-04-25 20:11 -5.44413 -33.35046 31881 ft 423 kts 216°
2026-04-25 20:11 -5.49048 -33.38673 31874 ft 424 kts 218°
2026-04-25 20:12 -5.53659 -33.42342 31874 ft 424 kts 218°
2026-04-25 20:12 -5.57528 -33.45360 31874 ft 424 kts 217°
2026-04-25 20:13 -5.62974 -33.49545 31865 ft 422 kts 217°
2026-04-25 20:13 -5.67634 -33.53109 31875 ft 423 kts 217°
2026-04-25 20:14 -5.72303 -33.56673 31874 ft 422 kts 217°
2026-04-25 20:14 -5.76966 -33.60230 31874 ft 422 kts 217°
2026-04-25 20:15 -5.81627 -33.63785 31874 ft 422 kts 217°
2026-04-25 20:15 -5.86311 -33.67361 31922 ft 428 kts 216°
2026-04-25 20:16 -5.91046 -33.70978 31878 ft 429 kts 216°
2026-04-25 20:16 -5.95777 -33.74594 31873 ft 429 kts 216°
2026-04-25 20:17 -6.00510 -33.78214 31873 ft 429 kts 216°
2026-04-25 20:17 -6.05249 -33.81838 31873 ft 429 kts 216°
2026-04-25 20:18 -6.09994 -33.85467 31910 ft 431 kts 217°
2026-04-25 20:18 -6.14747 -33.89103 31880 ft 431 kts 217°
2026-04-25 20:19 -6.19503 -33.92743 31876 ft 431 kts 217°
2026-04-25 20:19 -6.24256 -33.96382 31877 ft 430 kts 217°
2026-04-25 20:20 -6.29005 -34.00019 31877 ft 430 kts 217°
2026-04-25 20:20 -6.33773 -34.03671 31901 ft 435 kts 217°
2026-04-25 20:21 -6.38595 -34.07365 31881 ft 437 kts 217°
2026-04-25 20:21 -6.40996 -34.09205 31729 ft 432 kts 217°
2026-04-25 20:21 -6.43374 -34.11027 31267 ft 431 kts 217°
2026-04-25 20:22 -6.45749 -34.12847 30775 ft 430 kts 217°
2026-04-25 20:22 -6.47331 -34.14060 30410 ft 430 kts 217°
2026-04-25 20:22 -6.50474 -34.16469 30058 ft 421 kts 217°
2026-04-25 20:22 -6.52769 -34.18228 29915 ft 411 kts 217°
2026-04-25 20:23 -6.55016 -34.19954 29624 ft 405 kts 216°
2026-04-25 20:23 -6.57245 -34.21664 29197 ft 403 kts 217°
2026-04-25 20:23 -6.59463 -34.23365 28605 ft 400 kts 217°
2026-04-25 20:23 -6.61641 -34.25037 28089 ft 387 kts 216°
2026-04-25 20:24 -6.61937 -34.25264 28034 ft 385 kts 216°
2026-04-25 20:24 -6.63899 -34.26771 27734 ft 373 kts 216°
2026-04-25 20:25 -6.65939 -34.28339 27390 ft 369 kts 216°
2026-04-25 20:25 -6.67967 -34.29897 26929 ft 368 kts 216°
2026-04-25 20:25 -6.69994 -34.31453 26470 ft 367 kts 216°
2026-04-25 20:25 -6.72010 -34.33001 26036 ft 365 kts 216°
2026-04-25 20:26 -6.74014 -34.34540 25616 ft 362 kts 215°
2026-04-25 20:26 -6.76006 -34.36068 25207 ft 360 kts 215°
2026-04-25 20:26 -6.77982 -34.37582 24831 ft 356 kts 217°
2026-04-25 20:26 -6.79939 -34.39081 24415 ft 353 kts 217°
2026-04-25 20:27 -6.81884 -34.40572 23973 ft 352 kts 217°
2026-04-25 20:27 -6.83817 -34.42055 23533 ft 350 kts 217°
2026-04-25 20:27 -6.85741 -34.43531 23081 ft 348 kts 217°
2026-04-25 20:27 -6.87657 -34.45001 22648 ft 346 kts 217°
2026-04-25 20:28 -6.89557 -34.46460 22225 ft 343 kts 217°
2026-04-25 20:28 -6.91442 -34.47908 21804 ft 341 kts 217°
2026-04-25 20:28 -6.93315 -34.49347 21383 ft 338 kts 217°
2026-04-25 20:28 -6.95171 -34.50774 20961 ft 335 kts 217°
2026-04-25 20:29 -6.97014 -34.52190 20538 ft 333 kts 217°
2026-04-25 20:29 -6.98839 -34.53594 20103 ft 330 kts 217°
2026-04-25 20:29 -7.00654 -34.54988 19695 ft 327 kts 217°
2026-04-25 20:29 -7.02450 -34.56368 19256 ft 325 kts 217°
2026-04-25 20:30 -7.04231 -34.57738 18817 ft 322 kts 217°
2026-04-25 20:30 -7.06000 -34.59097 18388 ft 319 kts 217°
2026-04-25 20:30 -7.07754 -34.60447 17962 ft 316 kts 217°
2026-04-25 20:30 -7.09488 -34.61781 17539 ft 313 kts 217°
2026-04-25 20:31 -7.11205 -34.63103 17116 ft 310 kts 216°
2026-04-25 20:31 -7.12908 -34.64414 16693 ft 308 kts 216°
2026-04-25 20:31 -7.14598 -34.65714 16269 ft 305 kts 216°
2026-04-25 20:31 -7.16273 -34.67004 15846 ft 303 kts 216°
2026-04-25 20:32 -7.17937 -34.68285 15428 ft 301 kts 216°
2026-04-25 20:32 -7.19592 -34.69559 15015 ft 299 kts 216°
2026-04-25 20:32 -7.21236 -34.70825 14607 ft 297 kts 217°
2026-04-25 20:32 -7.22867 -34.72080 14262 ft 293 kts 217°
2026-04-25 20:33 -7.24466 -34.73318 13924 ft 289 kts 217°
2026-04-25 20:33 -7.26053 -34.74548 13501 ft 289 kts 217°
2026-04-25 20:33 -7.27639 -34.75779 13079 ft 288 kts 217°
2026-04-25 20:33 -7.28692 -34.76597 12815 ft 287 kts 216°
2026-04-25 20:34 -7.30787 -34.78225 12307 ft 285 kts 216°
2026-04-25 20:34 -7.32345 -34.79436 11937 ft 283 kts 216°
2026-04-25 20:34 -7.33892 -34.80638 11575 ft 281 kts 216°
2026-04-25 20:34 -7.35430 -34.81833 11217 ft 279 kts 216°
2026-04-25 20:35 -7.36956 -34.83018 10865 ft 277 kts 216°
2026-04-25 20:35 -7.38472 -34.84195 10532 ft 275 kts 216°
2026-04-25 20:35 -7.39968 -34.85356 10305 ft 269 kts 216°
2026-04-25 20:35 -7.41445 -34.86502 10070 ft 272 kts 216°
2026-04-25 20:36 -7.42949 -34.87668 9757 ft 274 kts 216°
2026-04-25 20:36 -7.44447 -34.88830 9439 ft 271 kts 216°
2026-04-25 20:36 -7.45926 -34.89978 9162 ft 267 kts 216°
2026-04-25 20:36 -7.47390 -34.91114 8981 ft 265 kts 216°
2026-04-25 20:37 -7.48851 -34.92248 8932 ft 267 kts 216°
2026-04-25 20:37 -7.50317 -34.93386 8914 ft 266 kts 216°
2026-04-25 20:37 -7.51779 -34.94521 8907 ft 266 kts 216°
2026-04-25 20:37 -7.53245 -34.95659 8903 ft 266 kts 216°
2026-04-25 20:38 -7.54708 -34.96794 8902 ft 266 kts 216°
2026-04-25 20:38 -7.56167 -34.97927 8867 ft 263 kts 216°
2026-04-25 20:38 -7.57570 -34.99019 8251 ft 248 kts 216°
2026-04-25 20:38 -7.58746 -34.99935 7976 ft 246 kts 216°
2026-04-25 20:39 -7.60021 -35.00928 7384 ft 244 kts 216°
2026-04-25 20:39 -7.61329 -35.01947 6928 ft 235 kts 216°
2026-04-25 20:39 -7.62187 -35.02616 6748 ft 235 kts 216°
2026-04-25 20:40 -7.63911 -35.03956 6104 ft 231 kts 217°
2026-04-25 20:40 -7.65144 -35.04914 5974 ft 218 kts 217°
2026-04-25 20:40 -7.66327 -35.05815 5799 ft 211 kts 214°
2026-04-25 20:40 -7.67633 -35.06269 5384 ft 188 kts 186°
2026-04-25 20:41 -7.68838 -35.06119 5400 ft 166 kts 171°
2026-04-25 20:41 -7.69944 -35.05847 5272 ft 170 kts 168°
2026-04-25 20:41 -7.71116 -35.05545 5147 ft 178 kts 168°
2026-04-25 20:41 -7.72316 -35.05223 4981 ft 179 kts 167°
2026-04-25 20:42 -7.73510 -35.04891 4803 ft 178 kts 167°
2026-04-25 20:42 -7.74696 -35.04553 4631 ft 177 kts 166°
2026-04-25 20:42 -7.75877 -35.04209 4466 ft 177 kts 166°
2026-04-25 20:42 -7.77050 -35.03861 4330 ft 176 kts 166°
2026-04-25 20:43 -7.78219 -35.03517 4228 ft 175 kts 167°
2026-04-25 20:43 -7.79401 -35.03229 4158 ft 175 kts 169°
2026-04-25 20:43 -7.80582 -35.02947 4076 ft 175 kts 168°
2026-04-25 20:43 -7.81756 -35.02642 3911 ft 175 kts 167°
2026-04-25 20:44 -7.82918 -35.02310 3724 ft 173 kts 166°
2026-04-25 20:44 -7.84067 -35.01958 3531 ft 173 kts 165°
2026-04-25 20:44 -7.85208 -35.01591 3278 ft 172 kts 164°
2026-04-25 20:44 -7.86335 -35.01219 3119 ft 168 kts 164°
2026-04-25 20:45 -7.87419 -35.00855 2998 ft 161 kts 163°
2026-04-25 20:45 -7.88476 -35.00499 2851 ft 161 kts 163°
2026-04-25 20:45 -7.89535 -35.00142 2710 ft 161 kts 163°
2026-04-25 20:45 -7.90596 -34.99784 2570 ft 161 kts 163°
2026-04-25 20:46 -7.91654 -34.99426 2433 ft 161 kts 163°
2026-04-25 20:46 -7.92713 -34.99069 2298 ft 161 kts 163°
2026-04-25 20:46 -7.93773 -34.98712 2163 ft 161 kts 163°
2026-04-25 20:46 -7.94831 -34.98356 2030 ft 161 kts 163°
2026-04-25 20:47 -7.95883 -34.98002 1967 ft 156 kts 162°
2026-04-25 20:47 -7.96887 -34.97663 1911 ft 150 kts 162°
2026-04-25 20:47 -7.97873 -34.97331 1881 ft 150 kts 162°
2026-04-25 20:47 -7.98857 -34.97000 1869 ft 150 kts 162°
2026-04-25 20:48 -7.99842 -34.96668 1856 ft 149 kts 162°
2026-04-25 20:48 -8.00825 -34.96338 1898 ft 149 kts 162°
2026-04-25 20:48 -8.01807 -34.96007 1871 ft 149 kts 162°
2026-04-25 20:48 -8.02779 -34.95680 1759 ft 144 kts 162°
2026-04-25 20:49 -8.03708 -34.95367 1571 ft 139 kts 162°
2026-04-25 20:49 -8.04624 -34.95058 1406 ft 139 kts 162°
2026-04-25 20:49 -8.05544 -34.94748 1239 ft 141 kts 162°
2026-04-25 20:49 -8.06475 -34.94435 1063 ft 142 kts 162°
2026-04-25 20:50 -8.07417 -34.94118 880 ft 144 kts 162°
2026-04-25 20:50 -8.08372 -34.93797 691 ft 146 kts 162°
2026-04-25 20:50 -8.09341 -34.93470 498 ft 148 kts 162°
2026-04-25 20:50 -8.10324 -34.93139 300 ft 150 kts 162°
2026-04-25 20:51 -8.11317 -34.92804 107 ft 151 kts 162°
2026-04-25 20:51 -8.12293 -34.92476 51 ft 144 kts 162°
2026-04-25 20:51 -8.13069 -34.92218 44 ft 69 kts 162°
2026-04-25 20:51 -8.13273 -34.92144 44 ft 19 kts 147°
2026-04-25 20:52 -8.13338 -34.92086 44 ft 12 kts 134°
2026-04-25 20:52 -8.13366 -34.92056 44 ft 7 kts 131°
2026-04-25 20:52 -8.13404 -34.92005 44 ft 7 kts 125°
2026-04-25 20:52 -8.13432 -34.91967 44 ft 6 kts 125°
2026-04-25 20:53 -8.13439 -34.91942 44 ft 5 kts 92°
2026-04-25 20:53 -8.13433 -34.91925 44 ft 4 kts 68°
2026-04-25 20:54 -8.13417 -34.91881 44 ft 0 kts 71°